Starlink 31512

operational
NORAD ID: 59500 Int'l Des: 2024-071 Owner: SPXS Country: US Constellation: starlink
LEOCIRCULAR

Starlink 31512について

説明を読み込み中...

リアルタイム位置

3D地球を読み込み中...

次回通過

高度履歴

Altitude vs Time

uPlot chart will show altitude changes over time

軌道要素

1 59500U 24071S 25259.12370863 .00002140 00000-0 87238-4 0 9995
2 59500 43.0017 205.4471 0001090 253.3048 106.7684 15.27590648 81967
Epoch: Sep 16, 2025 • Age: 12 hours

現在のステータス

高度 482.7 km
速度 7.63 km/s
衛星直下点 -1.13°S, 166.91°E
打ち上げ日 Apr 13, 2024
運用期間 1.4 years
タイプ internet

技術仕様

分類 Payload
質量 730.00 kg
乾燥質量 700.00 kg
総質量 730.00 kg
長さ 0.30 m
直径 4.10 m
スパン 29.00 m
形状 Box + pan
製造者 SPXS
バスタイプ Starlink V2M
フェーズステータス In Orbit
所有者/国 SPXS/US

大規模コンステレーション

Loading constellations...